Jackson, MI

11:48 PM EDT on April 24, 2018 (GMT -0400)
Jackson County-Reynolds

Weather History for KJXN - October, 2012

Change the Weather History Date:

Friday, October 12, 2012

  Actual Average Record
Temperature  
Mean Temperature 42 °F 52 °F  
Max Temperature 52 °F 62 °F 80 °F (2008)
Min Temperature 31 °F 41 °F 26 °F (1957)
Degree Days  
Heating Degree Days 23 14  
Month to date heating degree days 188 145  
Since 1 July heating degree days 373 333  
Cooling Degree Days 0 0  
Month to date cooling degree days 0 3  
Year to date cooling degree days 868 589  
Moisture  
Dew Point 31 °F    
Average Humidity 61    
Maximum Humidity 92    
Minimum Humidity 30    
Precipitation  
Precipitation 0.02 in 0.08 in 0.76 in (2016)
Month to date precipitation 0.50 1.13  
Year to date precipitation 20.20 25.53  
Sea Level Pressure  
Sea Level Pressure 30.37 in    
Wind  
Wind Speed 5 mph (NNE)    
Max Wind Speed 12 mph    
Max Gust Speed 17 mph    
Visibility 10 miles    
Events Rain    
T = Trace of Precipitation, MM = Missing Value Source: NWS Daily Summary

Daily Weather History Graph

Daily Weather History Graph

Search for Another Location

Airport or City:

Astronomy

Oct. 12, 2012 Rise Set
Actual Time 7:47 AM EDT 6:59 PM EDT
Civil Twilight 7:19 AM EDT 7:28 PM EDT
Nautical Twilight 6:47 AM EDT 8:00 PM EDT
Astronomical Twilight 6:14 AM EDT 8:33 PM EDT
Moon 4:26 AM EDT (10/12) 5:11 PM EDT (10/12)
Length of Visible Light 12h 08m
Length of Day
11h 12m
Waning Crescent, 11% of the Moon is Illuminated
Oct 12
Waning Crescent
Oct 15
New
Oct 21
First Quarter
Oct 29
Full
Nov 6
Last Quarter

Hourly Weather History & Observations

Time (EDT) Temp. Windchill Dew Point Humidity Pressure Visibility Wind Dir Wind Speed Gust Speed Precip Events Conditions
1:04 AM 42.8 °F 38.6 °F 37.4 °F 81% 30.22 in 10.0 mi North 6.9 mph - N/A   Overcast
1:56 AM 39.9 °F 33.9 °F 36.0 °F 86% 30.25 in 10.0 mi North 9.2 mph 17.3 mph 0.00 in Rain Light Rain
2:09 AM 39.2 °F 34.2 °F 37.4 °F 93% 30.24 in 10.0 mi North 6.9 mph - 0.01 in Rain Light Rain
2:32 AM 39.2 °F 37.0 °F 35.6 °F 87% 30.25 in 10.0 mi NNW 3.5 mph - 0.01 in Rain Light Rain
2:56 AM 39.0 °F - 36.0 °F 89% 30.26 in 10.0 mi Calm Calm - 0.02 in Rain Light Rain
4:56 AM 36.0 °F - 34.0 °F 93% 30.29 in 10.0 mi Calm Calm - N/A   Clear
5:56 AM 36.0 °F - 33.1 °F 89% 30.32 in 10.0 mi Calm Calm - N/A   Clear
6:56 AM 34.0 °F 29.8 °F 30.9 °F 89% 30.36 in 10.0 mi NNW 4.6 mph - N/A   Clear
7:56 AM 32.0 °F - 28.9 °F 88% 30.39 in 10.0 mi Calm Calm - N/A   Clear
8:56 AM 35.1 °F 32.2 °F 30.9 °F 85% 30.42 in 10.0 mi North 3.5 mph - N/A   Clear
9:56 AM 39.9 °F 37.8 °F 33.1 °F 77% 30.44 in 10.0 mi Variable 3.5 mph - N/A   Clear
10:56 AM 44.1 °F 39.0 °F 32.0 °F 63% 30.45 in 10.0 mi North 9.2 mph - N/A   Clear
11:56 AM 46.0 °F 41.0 °F 28.0 °F 50% 30.45 in 10.0 mi NNE 10.4 mph 17.3 mph N/A   Clear
12:56 PM 48.9 °F - 28.9 °F 46% 30.45 in 10.0 mi Variable 6.9 mph - N/A   Clear
1:56 PM 50.0 °F - 27.0 °F 41% 30.45 in 10.0 mi NE 5.8 mph - N/A   Clear
4:56 PM 51.1 °F - 21.9 °F 32% 30.41 in 10.0 mi Calm Calm - N/A   Clear
5:56 PM 50.0 °F - 23.0 °F 35% 30.41 in 10.0 mi ESE 4.6 mph - N/A   Clear
7:56 PM 41.0 °F - 25.0 °F 53% 30.41 in 10.0 mi Calm Calm - N/A   Clear
9:56 PM 37.9 °F 33.5 °F 28.0 °F 68% 30.43 in 10.0 mi South 5.8 mph - N/A   Clear
10:56 PM 36.0 °F 32.1 °F 28.0 °F 73% 30.41 in 10.0 mi SE 4.6 mph - N/A   Clear